Waarnemingen

Advertentie
Mijn weer
Oostende Airport, België (6407): temperatuur & dauwpunt: 21.11.2020 13:00:00 - 27.11.2020 13:00:00 (CET)Oostende Airport, België (6407): windsnelheid & windstoten: 21.11.2020 13:00:00 - 27.11.2020 13:00:00 (CET)Oostende Airport, België (6407): windrichting: 21.11.2020 13:00:00 - 27.11.2020 13:00:00 (CET)Oostende Airport, België (6407): luchtdruk: 21.11.2020 13:00:00 - 27.11.2020 13:00:00 (CET)Oostende Airport, België (6407): zicht: 21.11.2020 13:00:00 - 27.11.2020 13:00:00 (CET)
Datum & Tijd tt [°C] td [°C] ff [km/u] ff [kn] fx [km/u] fx [kn] dd ppp [hPa] vv [km]
27.11.2020 13:00:00 8,0 7,0 11 6 - - O - 4,2
27.11.2020 12:00:00 7,6 6,5 11 6 18 10 O 1019,8 5
27.11.2020 11:00:00 7,5 6,3 8 4 22 12 O 1020,3 5
27.11.2020 10:00:00 7,5 6,1 15 8 - - O 1020,1 7
27.11.2020 09:00:00 7,6 6,2 11 6 18 10 ONO 1020,1 8
27.11.2020 08:00:00 7,5 5,9 9 5 15 8 ONO 1019,8 10
27.11.2020 07:00:00 7,5 5,7 9 5 - - NO 1019,9 10
27.11.2020 06:00:00 7,2 5,5 9 5 14 8 ONO 1020,1 10
27.11.2020 05:00:00 7,2 6,1 8 4 18 10 ONO 1020,1 6
27.11.2020 04:00:00 7,5 6,1 9 5 - - O 1020,2 10
27.11.2020 03:00:00 7,7 6,0 11 6 14 8 O 1020,4 10
27.11.2020 02:00:00 7,6 6,0 11 6 14 8 ONO 1020,4 10
27.11.2020 01:00:00 7,7 6,1 11 6 - - ONO 1020,7 10
27.11.2020 00:00:00 7,7 6,1 11 6 18 10 ONO 1020,8 10
26.11.2020 23:00:00 8,1 6,7 11 6 18 10 ONO 1020,9 10
26.11.2020 22:00:00 8,2 7,3 11 6 - - NO 1020,9 10
26.11.2020 21:00:00 8,3 7,4 15 8 22 12 NO 1020,9 5
26.11.2020 20:00:00 8,6 7,5 13 7 22 12 ONO 1020,6 6
26.11.2020 19:00:00 8,6 7,7 15 8 - - NO 1020,5 6
26.11.2020 18:00:00 8,9 8,1 16 9 25 14 NNO 1020,3 4,0
26.11.2020 17:00:00 9,0 7,6 13 7 22 12 NO 1020,4 10
26.11.2020 16:00:00 9,1 8,4 13 7 - - NO 1020,2 4,0
26.11.2020 15:00:00 9,3 8,7 11 6 18 10 NNO 1020,4 0,9
26.11.2020 14:00:00 9,2 8,9 0 0 4 2 N 1020,6 0,5
26.11.2020 13:00:00 9,1 8,6 4 2 - - - 1021,0 0,5
26.11.2020 12:00:00 9,1 8,3 4 2 7 4 - 1021,4 1,3
26.11.2020 11:00:00 8,7 8,0 2 1 7 4 - 1021,3 1,2
26.11.2020 10:00:00 8,2 7,9 4 2 - - ZO 1021,3 0,2
26.11.2020 09:00:00 8,0 7,7 5 3 7 4 Z 1020,9 0,1
26.11.2020 08:00:00 8,1 7,9 4 2 7 4 ZZO 1020,5 0,2
26.11.2020 07:00:00 8,2 7,5 4 2 - - - 1020,1 0,7
26.11.2020 06:00:00 8,3 7,2 4 2 7 4 - 1020,3 4,0
26.11.2020 05:00:00 8,3 7,1 4 2 7 4 Z 1020,1 3,5
26.11.2020 04:00:00 8,4 7,3 5 3 - - ZZW 1019,8 3,5
26.11.2020 03:00:00 8,5 7,2 5 3 11 6 ZZW 1019,6 7
26.11.2020 02:00:00 8,4 7,2 8 4 14 8 ZZW 1019,3 9
26.11.2020 01:00:00 8,6 7,0 8 4 - - ZZW 1019,2 9
26.11.2020 00:00:00 8,4 7,2 9 5 14 8 Z 1018,9 8
25.11.2020 23:00:00 8,7 7,1 9 5 18 10 Z 1018,6 9
25.11.2020 22:00:00 8,4 7,0 11 6 - - Z 1018,1 8
25.11.2020 21:00:00 8,5 7,1 11 6 18 10 Z 1017,7 8
25.11.2020 20:00:00 8,5 7,1 8 4 14 8 ZZW 1017,4 7
25.11.2020 19:00:00 8,2 6,9 9 5 - - Z 1016,8 7
25.11.2020 18:00:00 7,8 6,6 11 6 14 8 Z 1016,0 8
25.11.2020 17:00:00 7,6 6,4 11 6 22 12 ZZO 1015,8 10
25.11.2020 16:00:00 8,8 6,8 15 8 - - Z 1015,5 10
25.11.2020 15:00:00 9,1 6,7 16 9 25 14 Z 1015,2 10
25.11.2020 14:00:00 8,5 6,1 16 9 29 16 Z 1015,3 10
25.11.2020 13:00:00 7,8 5,1 18 10 - - Z 1015,1 10
25.11.2020 12:00:00 7,1 4,4 16 9 29 16 Z 1015,2 10
25.11.2020 11:00:00 6,3 3,8 15 8 29 16 Z 1015,1 10
25.11.2020 10:00:00 4,9 2,6 13 7 - - Z 1014,7 10
25.11.2020 09:00:00 4,0 2,1 18 10 25 14 Z 1014,4 10
25.11.2020 08:00:00 4,3 2,3 15 8 25 14 Z 1014,0 10
25.11.2020 07:00:00 4,4 2,4 16 9 - - Z 1013,7 10
25.11.2020 06:00:00 4,7 2,7 21 11 29 16 Z 1013,6 10
25.11.2020 05:00:00 4,8 2,9 15 8 25 14 Z 1013,9 10
25.11.2020 04:00:00 4,9 3,2 15 8 - - Z 1014,2 10
25.11.2020 03:00:00 5,1 3,7 16 9 26 14 Z 1014,6 10
25.11.2020 02:00:00 5,4 3,6 15 8 25 14 Z 1015,0 10
25.11.2020 01:00:00 5,1 3,4 14 8 - - Z 1015,2 15
25.11.2020 00:00:00 5,1 3,3 15 8 29 16 Z 1015,7 10
24.11.2020 23:00:00 5,4 3,4 21 11 29 16 Z 1016,2 10
24.11.2020 22:00:00 5,6 3,5 16 9 - - ZZO 1016,4 10
24.11.2020 21:00:00 5,7 3,7 21 11 29 16 ZZO 1016,7 10
24.11.2020 20:00:00 6,0 3,7 16 9 29 16 ZZO 1017,4 10
24.11.2020 19:00:00 6,5 4,7 16 9 - - ZZO 1017,6 10
24.11.2020 18:00:00 6,8 4,7 16 9 25 14 ZZO 1017,7 10
24.11.2020 17:00:00 7,5 4,9 11 6 29 16 Z 1018,5 10
24.11.2020 16:00:00 8,7 5,5 21 11 - - ZZO 1018,9 10
24.11.2020 15:00:00 8,9 6,6 16 9 29 16 Z 1020,0 10
24.11.2020 14:00:00 8,1 6,5 18 10 29 16 Z 1020,8 7
24.11.2020 13:00:00 8,4 7,1 18 10 - - Z 1021,3 8
24.11.2020 12:00:00 8,7 7,6 16 9 29 16 Z 1021,9 7
24.11.2020 11:00:00 8,3 7,3 16 9 25 14 Z 1022,6 3,8
24.11.2020 10:00:00 7,4 6,5 13 7 - - Z 1022,6 3,5
24.11.2020 09:00:00 7,2 6,4 13 7 25 14 Z 1022,9 3,2
24.11.2020 08:00:00 6,9 6,3 15 8 25 14 Z 1023,0 1,8
24.11.2020 07:00:00 6,5 5,9 13 7 - - Z 1023,2 2,2
24.11.2020 06:00:00 6,2 5,7 13 7 18 10 Z 1023,8 1,5
24.11.2020 05:00:00 5,8 5,2 13 7 22 12 Z 1024,2 0,9
24.11.2020 04:00:00 5,6 5,2 13 7 - - Z 1024,6 0,7
24.11.2020 03:00:00 5,7 5,2 13 7 25 14 Z 1025,3 0,7
24.11.2020 02:00:00 6,2 5,5 16 9 25 14 ZZW 1025,9 1,8
24.11.2020 01:00:00 6,4 5,9 15 8 - - Z 1026,3 0,7
24.11.2020 00:00:00 6,3 5,9 15 8 22 12 ZZW 1026,6 0,4
23.11.2020 23:00:00 5,4 4,7 11 6 18 10 ZZW 1026,5 5
23.11.2020 22:00:00 5,7 4,9 11 6 - - Z 1027,1 8
23.11.2020 21:00:00 6,5 5,5 11 6 14 8 Z 1027,5 9
23.11.2020 20:00:00 6,6 5,5 9 5 14 8 ZZW 1027,9 9
23.11.2020 19:00:00 8,1 6,5 8 4 - - ZZW 1027,9 10
23.11.2020 18:00:00 8,3 6,5 9 5 11 6 ZZW 1028,1 10
23.11.2020 17:00:00 8,7 6,2 8 4 14 8 Z 1028,0 10
23.11.2020 16:00:00 9,2 5,7 9 5 - - Z 1028,3 10
23.11.2020 15:00:00 9,4 5,2 11 6 22 12 Z 1028,6 10
23.11.2020 14:00:00 9,7 5,0 15 8 18 10 ZZO 1028,6 10
23.11.2020 13:00:00 10,0 5,2 8 4 - - Z 1029,7 10
23.11.2020 12:00:00 8,6 5,4 8 4 11 6 ZZW 1030,2 10
23.11.2020 11:00:00 7,8 6,0 5 3 7 4 Z 1029,6 10
23.11.2020 10:00:00 4,5 3,7 4 2 - - - 1029,4 10
23.11.2020 09:00:00 2,7 2,3 2 1 11 6 Z 1028,8 10
23.11.2020 08:00:00 3,5 2,6 8 4 7 4 Z 1028,5 10
23.11.2020 07:00:00 6,3 2,0 5 3 - - NW 1028,4 10
23.11.2020 06:00:00 6,9 2,2 9 5 14 8 NW 1028,1 10
23.11.2020 05:00:00 7,6 2,4 11 6 18 10 NW 1027,8 10
23.11.2020 04:00:00 8,1 3,7 11 6 - - NW 1027,7 10
23.11.2020 03:00:00 8,5 3,5 13 7 22 12 NW 1027,7 10
23.11.2020 02:00:00 9,2 4,2 15 8 22 12 NW 1027,8 10
23.11.2020 01:00:00 9,2 4,2 15 8 - - NW 1027,7 10
23.11.2020 00:00:00 9,7 5,9 13 7 18 10 NW 1027,3 10
22.11.2020 23:00:00 8,7 7,0 13 7 18 10 ZW 1027,3 10
22.11.2020 22:00:00 9,8 7,0 11 6 - - WNW 1027,4 10
22.11.2020 21:00:00 9,5 6,6 13 7 18 10 WNW 1027,0 10
22.11.2020 20:00:00 5,7 5,0 8 4 11 6 WZW 1027,0 10
22.11.2020 19:00:00 5,3 4,4 5 3 - - WZW 1026,8 10
22.11.2020 18:00:00 6,3 5,2 8 4 11 6 WZW 1026,5 10
22.11.2020 17:00:00 7,2 5,0 9 5 14 8 W 1026,2 10
22.11.2020 16:00:00 10,3 7,5 11 6 - - NW 1026,4 10
22.11.2020 15:00:00 10,9 8,5 11 6 22 12 NW 1026,6 10
22.11.2020 14:00:00 11,4 8,3 9 5 14 8 NW 1026,7 10
22.11.2020 13:00:00 11,3 8,1 9 5 - - NW 1026,9 10
22.11.2020 12:00:00 11,1 8,6 9 5 22 12 W 1027,1 10
22.11.2020 11:00:00 9,9 8,6 16 9 25 14 NW 1027,1 7
22.11.2020 10:00:00 10,9 10,0 16 9 - - WZW 1026,7 5
22.11.2020 09:00:00 10,8 9,9 18 10 29 16 W 1026,4 4,5
22.11.2020 08:00:00 10,9 10,0 22 12 32 18 W 1026,0 7
22.11.2020 07:00:00 10,9 10,1 22 12 - - W 1026,1 4,0
22.11.2020 06:00:00 10,1 9,3 16 9 25 14 ZW 1026,0 3,5
22.11.2020 05:00:00 9,7 8,8 13 7 22 12 ZW 1026,1 4,0
22.11.2020 04:00:00 9,2 8,3 16 9 - - ZZW 1026,0 10
22.11.2020 03:00:00 9,2 8,2 22 12 29 16 ZZW 1026,1 10
22.11.2020 02:00:00 9,0 8,1 22 12 29 16 ZZW 1026,0 10
22.11.2020 01:00:00 9,1 8,2 21 11 - - ZZW 1026,2 10
22.11.2020 00:00:00 9,0 8,1 21 11 29 16 ZZW 1026,5 10
21.11.2020 23:00:00 9,1 8,3 22 12 29 16 ZZW 1027,0 8
21.11.2020 22:00:00 9,3 8,4 21 11 - - ZW 1027,2 7
21.11.2020 21:00:00 9,4 8,4 21 11 32 18 ZZW 1027,5 9
21.11.2020 20:00:00 9,7 8,4 22 12 29 16 ZZW 1027,8 7
21.11.2020 19:00:00 9,8 8,2 24 13 - - ZZW 1027,7 10
21.11.2020 18:00:00 10,0 8,4 22 12 29 16 ZW 1027,8 10
21.11.2020 17:00:00 10,0 8,5 22 12 32 18 ZZW 1027,7 10
21.11.2020 16:00:00 10,2 8,6 26 14 - - ZW 1027,7 10
21.11.2020 15:00:00 9,9 8,4 22 12 43 23 ZZW 1027,9 10
21.11.2020 14:00:00 10,2 8,0 28 15 36 19 ZZW 1028,1 10
21.11.2020 13:00:00 9,7 7,7 28 15 - - ZZW 1028,6 10

tt = temperatuur
td = dauwpunt
ff = windsnelheid
fx = windstoten
dd = windrichting
ppp = luchtdruk
vv = zicht

Weerstations in de omgeving